COSMOS 2514 (751) (41330 NORAD) Tracking and Keplerian Element Data

This shows tracking and keplerian element data for the satellite.

Feedback or suggestion? Click here.




ElementValue
Catalog41330
NameCOSMOS 2514 (751)
Epoch Orbit1900
Epoch Day198.79173131
Epoch Year2018
RAAN51.2279
Inclination65.2257
Eccentricity0.000781
Argument of Perigee209.5964
Mean Anonmoly219.8661
Mean Motion2.13103305
Decay Rate-5.4E-07
L11 41330U 16008A 18198.79173131 -.00000054 00000-0 00000-0 0 9995
L22 41330 65.2257 51.2279 0007810 209.5964 219.8661 2.13103305 19008

Live tracking and technical data element details for COSMOS 2514 (751) (NORAD 41330). COSMOS 2514 (751) can be tracked NOW for your location showing map with azimuth and elevation plus other details from your city location.

Track the satellite on the map from your city or location and see movement details for azimuth, elevation, latitude, longitude, range, height, and movement on the map or in text.







IsCatalogInMostPopularTable: catalog: 41330, numindb: 58
Update: records affected: 1



GetName: 41330 COSMOS 2514 (751)

Hit Count: updated at: Thu, 19 Jul 2018 21:16:50 GMT